DECAYED
Showing default

LS3C, 56214 (Decayed)

Orbit data source: Space-Track

LS3C, 56214 was a Lithuanian payload satellite in LEO that was launched on Sat, 15 Apr 2023 UTC via an FALCON 9 launch vehicle from the Air Force Western Test Range (AFWTR). Payload-class satellites include a variety of spacecraft equipped with specific instruments for various scientific and technological missions. These include communications satellites like Starlink; space stations such as the ISS; scientific satellites like the Hubble; Earth observation satellites from companies like Planet Labs, Umbra, and HawkEye 360; GPS; miniature CubeSats for education and research; and military/defense satellites.

Not visible in the next 10 days
Identifier
56214, 2023-054AN
Orbit
Decayed
Last TLE update
9 months ago
Origin
Flag of LTLacuna Space (LT / LTU)
Manufacturer
NanoAvionics US
Mission
Decayed Commercial Technology
Bus & Motor
CUBESAT 3U, Unknown motor
Mass
4 kg wet, 4 kg dry
Launch date (UTC)
2023-04-15 (2 years ago)
Launch vehicle
FALCON 9
Launch site
Air Force Western Test Range (AFWTR)
Object type
Payload
Rocket body
Debris
Shape & HBR
Box, 0.3 m
Radar Cross Section
0.035 m², Small (<0.1 m²)

Expand to show TLE details & history

TLE from 9 months ago
0 LS3C
1 56214U 23054AN  24297.58785501  .15021042  27281-5  49911-3 0  9992
2 56214  97.3134 203.6006 0006452 189.2191 170.8993 16.44309300 86418
Epoch: 2024-10-23T14:06Z
TLE epoch observation values (Epoch: 2024-10-23T14:06:30.672Z)
Latitude
-0.00011°
Longitude
-40.51086°
Altitude
161.787 km
Speed
7.807 km/s
True Right ascension
13h 34m 24s
True Declination
0° 00' 00"
Sunlit
Object was in daylight at epoch
Visualization orbit readout
Visualization observer readout
Orbital elements
Apogee altitude
155.375 km
Perigee altitude
146.95 km
Semi-major axis
6,529.299 km
Eccentricity
0.00065
Inclination
97.3134°
RAAN
203.6006°
Arg. of periapsis
189.2191°
True anomaly
Unknown
Mean anomaly
170.8993°
Eccentric anomaly
Unknown
Mean motion
4.1138 °/min
Orbital period
87.51 mins
BSTAR
0.00049911
Loading maneuver chart data...
Loading SW <> Apogee altitude chart data...
Loading historical data...
Loading historical data...
Loading historical data...
Loading historical data...
Loading historical data...
Loading historical data...
Loading historical data...

LS3C Visibility

Observer location: undefined°, undefined°

This satellite is decayed
Span
Click to sort rows by Start time (UTC) header in descending order
Start Az.
Max El. time (UTC)
Max El. Az.
Max El.
End time (UTC)
End Az.
|